This is the latest recevied weather packets stored in our database for station/object JS1SZZ-13. If no packets are shown the sender has not sent any weather packets the latest 10 day(s).
| Time | Temp. | Humidity | Pressure | Rain* | Wind** | Luminosity | Snow |
|---|---|---|---|---|---|---|---|
| 1787710359 | 30.56° C | 56% | 1009.9 hPa | 0 mm | - | - | - |
| 1787709459 | 30.56° C | 59% | 1010.1 hPa | 0 mm | - | - | - |
| 1787708558 | 30° C | 61% | 1010.1 hPa | 0 mm | - | - | - |
| 1787707660 | 30° C | 62% | 1010.4 hPa | 0 mm | - | - | - |
| 1787706758 | 28.89° C | 67% | 1010.7 hPa | 0 mm | - | - | - |
| 1787705859 | 27.78° C | 67% | 1010.8 hPa | 0 mm | - | - | - |
| 1787704959 | 28.33° C | 64% | 1011.2 hPa | 0 mm | - | - | - |
| 1787704058 | 27.78° C | 70% | 1010.9 hPa | 0 mm | - | - | - |
| 1787703159 | 28.33° C | 64% | 1011.2 hPa | 0 mm | - | - | - |
| 1787702260 | 27.78° C | 68% | 1011.2 hPa | 0 mm | - | - | - |
| 1787701358 | 27.22° C | 68% | 1011.3 hPa | 0 mm | - | - | - |
| 1787700459 | 27.22° C | 69% | 1011.5 hPa | 0 mm | - | - | - |
| 1787699559 | 26.67° C | 70% | 1011.2 hPa | 0 mm | - | - | - |
| 1787698658 | 26.11° C | 70% | 1011.4 hPa | 0 mm | - | - | - |
| 1787697759 | 25.56° C | 71% | 1011.7 hPa | 0 mm | - | - | - |
| 1787696860 | 25.56° C | 71% | 1011.6 hPa | 0 mm | - | - | - |
| 1787695959 | 24.44° C | 75% | 1011.5 hPa | 0 mm | - | - | - |
| 1787695059 | 24.44° C | 80% | 1011.5 hPa | 0 mm | - | - | - |
| 1787694160 | 23.33° C | 89% | 1011.3 hPa | 0 mm | - | - | - |
| 1787693259 | 22.22° C | 93% | 1011.6 hPa | 0 mm | - | - | - |
| 1787692359 | 21.11° C | 92% | 1011.5 hPa | 0 mm | - | - | - |
| 1787691458 | 19.44° C | 93% | 1011.4 hPa | 0 mm | - | - | - |
| 1787690560 | 19.44° C | 93% | 1011.5 hPa | 0.25 mm | - | - | - |
| 1787689659 | 19.44° C | 93% | 1011.2 hPa | 0.25 mm | - | - | - |
| 1787688760 | 19.44° C | 93% | 1011.4 hPa | 0.25 mm | - | - | - |
* Rain latest hour (hover to see other rain measurements)
** Current wind speed in m/s (hover to see current wind gust speed)